Regional Weather Roundup
Issued by NWS Boston, MA

Home | Current Version | Previous Version | Text Only | Print | Product List | Glossary On
Versions: 1 2 3 4 5 6 7 8 9 10 11 12 13 14 15 16 17 18 19 20 21 22 23 24 25 26 27
000
ASUS41 KBOX 292210
RWRBOX

REGIONAL WEATHER ROUNDUP
NATIONAL WEATHER SERVICE TAUNTON MA
600 PM EDT MON AUG 29 2016

NOTE:  "FAIR" INDICATES FEW OR NO CLOUDS BELOW 12,000 FEET WITH NO
SIGNIFICANT WEATHER AND/OR OBSTRUCTIONS TO VISIBILITY.

MAZALL-292300-
EASTERN MASSACHUSETTS

CITY           SKY/WX    TMP DP  RH WIND       PRES   REMARKS
BOSTON         NOT AVBL
BEVERLY        MOSUNNY   80  53  39 NW16      30.05S
LAWRENCE       SUNNY     80  52  37 NW13G22   30.08R
BEDFORD        MOSUNNY   81  50  33 N13G23    30.06R
BLUE HILL        N/A     81  50  33 NW13G28   30.06R
NORWOOD        SUNNY     84  53  34 N9        30.05R
MARSHFIELD     SUNNY     77  59  53 VRB7      30.04R
PLYMOUTH       MOSUNNY   81  57  43 NE8G18    30.04R
TAUNTON        SUNNY     86  53  32 N6        30.03R
NEW BEDFORD    MOSUNNY   88  58  36 N8        30.02R
$$

MAZALL-292300-
CAPE COD AND THE ISLANDS

CITY           SKY/WX    TMP DP  RH WIND       PRES   REMARKS
FALMOUTH       MOSUNNY   79  57  47 N10G18    30.04
HYANNIS        SUNNY     79  59  50 MISG      30.03R
CHATHAM        SUNNY     80  55  42 VRB6      30.05R
PROVINCETOWN   SUNNY     75  62  64 N10       30.05R
NANTUCKET      SUNNY     80  61  52 NE14      30.04R
MARTHAS VNYRD  SUNNY     81  60  48 NE15      30.04R
$$

MAZALL-292300-
CENTRAL AND WESTERN MASSACHUSETTS

CITY           SKY/WX    TMP DP  RH WIND       PRES   REMARKS
WORCESTER      SUNNY     78  53  41 N9        30.12R
FITCHBURG      SUNNY     82  52  35 N14       30.11R
ORANGE         SUNNY     79  54  41 N12       30.11R
SPRINGFIELD    SUNNY     83  53  36 N9        30.07S
WESTFIELD      SUNNY     83  54  36 N13       30.09R
NORTH ADAMS    SUNNY     77  54  44 VRB5      30.12S
PITTSFIELD     SUNNY     77  54  44 N8        30.14R
$$

RIZALL-292300-
RHODE ISLAND

CITY           SKY/WX    TMP DP  RH WIND       PRES   REMARKS
PROVIDENCE     MOSUNNY   86  55  34 NW10      30.05R
NEWPORT        SUNNY     85  59  41 NW10      30.04R
BLOCK ISLAND   SUNNY     81  66  60 NW6       30.05R
SMITHFIELD     SUNNY     81  59  47 N8        30.08R
WESTERLY       SUNNY     87  53  31 N14G20    30.05R
$$

CTZALL-292300-
CONNECTICUT

CITY           SKY/WX    TMP DP  RH WIND       PRES   REMARKS
BRADLEY INTL   MOSUNNY   84  55  36 N12       30.08R
HARTFORD       SUNNY     87  56  34 N13       30.06R
BRIDGEPORT     SUNNY     89  54  30 N12       30.06R
DANBURY        SUNNY     82  57  42 N7        30.10R
GROTON         SUNNY     88  57  34 NW14      30.04R
NEW HAVEN      SUNNY     86  54  33 NW12G18   30.06S
CHESTER        FAIR      84  57  39 N10       30.08R
MERIDEN        SUNNY     88  56  33 NW9       30.07R
WILLIMANTIC    SUNNY     84  57  39 N8        30.08R
OXFORD         MOSUNNY   81  54  39 N9        30.13S
$$

MEZ002-015-021-024-NHZ003-005-008-011-012-014-VTZ005-008-292300-
NORTHERN NEW ENGLAND

CITY           SKY/WX    TMP DP  RH WIND       PRES   REMARKS
PORTLAND ME    SUNNY     77  52  41 NW15G25   30.07R
BANGOR ME      MOSUNNY   74  55  51 NW18      30.01R
CONCORD NH     MOSUNNY   78  53  41 NW14G24   30.11R
MANCHESTER NH  MOSUNNY   80  50  34 N17G25    30.08R
NASHUA NH      MOSUNNY   80  53  39 N14G23    30.08S
PORTSMOUTH NH  MOSUNNY   79  53  40 NW13      30.05R
JAFFREY NH     SUNNY     77  50  38 NW7G17    30.14R
KEENE NH       SUNNY     78  55  44 N13       30.12R
BURLINGTON VT  MOSUNNY   75  53  46 N9        30.17S
MT. WASHINGTON FOG       45  45 100 NW40G54     N/A  VSB 0
$$

NYZ052-076-292300-
EASTERN NEW YORK

CITY           SKY/WX    TMP DP  RH WIND       PRES   REMARKS
ALBANY         MOSUNNY   81  55  40 NW8       30.11S
NEW YORK CITY  MOSUNNY   89  58  34 N9        30.06R
$$

ANZALL-292300-
MARINE OBSERVATIONS

STATION/POSITION TIME  TEMP    WIND        PRES    VSBY  WAVE
                       AIR SEA DIR/SP/G                  HT/PER
                 (UTC) (F)     (DEG/KT/KT) (MB)    (MI)  (FT/S)
BOSTON BUOY      2150   75 69  330/ 14/ 16 1016.9R         2/13
BUZZARDS BAY     2200   83     310/ 13/ 15 1017.3R
NANTUCKET SOUND  2150   77 76   50/  8/ 10 1017.1R         1/13
MASS BAY-STELLWA 2104   72 67  360/ 12/ 12 1016.9R  1 7/8  2/13
ISLE OF SHOALS   2200   77     310/ 21/ 23 1017.1R
S OF BLOCK IS    2055      76                N/A           4/13
$$

......................KEY.........................
  SKY/WX - SKY CONDITION/PRESENT WEATHER
  TMP    - TEMPERATURE IN FAHRENHEIT
  DWPT   - DEWPOINT IN FAHRENHEIT
  RH     - RELATIVE HUMIDITY IN PERCENT
  WIND   - DIRECTION AND SPEED IN MPH
  PRES   - MEAN SEA LEVEL PRESSURE IN INCHES OF HG
  WCI    - WIND CHILL INDEX
  VSB    - VISIBILITY IN MILES
  HX     - HEAT INDEX
  TC     - TEMPERATURE IN CELSIUS
  VRB    - VARIABLE WIND DIRECTION
  N/A    - NOT AVAILABLE




USA.gov is the U.S. government's official web portal to all federal, state and local government web resources and services.